Location: Balleux
(49.5538°N, 1.8825°E)
Time: 17:22:59
(UTC+00:00)

Daily predictions for brighter satellites

Satellite Brightness Start Highest point End
(mag) Time Altitude Azimuth Time Altitude Azimuth Time Altitude Azimuth
ADEOS 3.6 17:13:24 10° SSE 17:18:35 75° ENE 17:23:49 10° NNW
Cosmos 1340 Rocket 3.3 17:15:38 10° SSE 17:19:14 38° E 17:22:53 10° NNE
Cosmos 2266 Rocket 4.0 17:14:00 10° N 17:20:19 69° ENE 17:26:28 10° SSE
Cosmos 1980 Rocket 2.3 17:15:46 10° SSW 17:21:25 87° WNW 17:27:11 10° NNE
Cosmos 2369 3.8 17:16:33 10° SSW 17:22:13 86° WNW 17:27:57 10° NNE
Cosmos 1763 Rocket 4.0 17:17:29 10° N 17:22:17 36° NE 17:27:00 10° ESE
Cosmos 1455 Rocket 4.5 17:18:12 10° NNW 17:22:20 43° W 17:26:26 10° SSW
USA 215 3.6 17:17:14 10° SE 17:23:46 72° SW 17:30:21 10° WNW
Okean O Rocket 3.3 17:22:33 10° E 17:24:44 14° NE 17:26:56 10° NNE
ATLAS CENTAUR R/B 1.7 17:20:17 10° SW 17:25:01 82° SE 17:29:34 10° NE
ATLAS 2AS CENTAUR R/B 2.8 17:18:22 10° NW 17:25:26 60° NE 17:32:04 10° ESE
Cosmos 2251 Rocket 3.6 17:21:23 10° SSW 17:26:43 72° ESE 17:32:06 10° NNE
Cosmos 1697 Rocket 3.7 17:21:55 10° SW 17:27:20 46° NW 17:32:48 10° NNE
Radarsat Rocket 4.1 17:21:56 10° SSE 17:27:58 72° ENE 17:34:42 10° NNW
CZ-2C R/B 3.9 17:23:28 10° N 17:28:41 44° WNW 17:33:57 10° SW
SMAP 3.7 17:25:55 10° S 17:30:32 62° WSW 17:35:10 10° NNW
COBE Rocket 4.1 17:26:09 10° S 17:30:54 75° WSW 17:35:34 10° NNW
DELTA 2 DEB (DPAF) 4.1 17:29:04 10° NNE 17:33:26 62° ESE 17:37:46 10° S
Cosmos 2263 Rocket 2.8 17:28:12 10° NW 17:33:41 61° WSW 17:39:09 10° SSE
SL-08 RB Rocket 4.2 17:30:51 10° S 17:35:27 67° WSW 17:40:08 10° NNW
Cosmos 540 Rocket 4.1 17:34:47 10° N 17:39:27 33° NE 17:44:04 10° ESE
Lacrosse 5 2.9 17:39:18 10° S 17:43:40 29° SE 17:47:30 13° ENE
SKYMED 2 3.9 17:39:35 10° NNE 17:43:47 44° E 17:47:56 10° S
SL-08 R/B 3.5 17:42:14 10° NNE 17:47:12 90° WNW 17:52:10 10° SSW
Cosmos 2058 Rocket 4.3 17:43:56 10° NNE 17:47:15 21° ENE 17:50:35 10° ESE
PSLV R/B 4.2 17:51:06 10° SE 17:54:25 34° ENE 17:57:49 10° N
Timation 2 Rocket 4.5 17:48:25 10° NW 17:54:34 66° WSW 18:00:56 10° SSE
Cosmos 1607 4.1 17:48:42 10° SW 17:54:50 77° NW 18:01:04 10° NE
YAOGAN 1 3.1 17:52:21 10° SE 17:56:18 36° ENE 18:00:17 10° N
Cosmos 1328 3.7 17:54:46 10° S 17:58:44 82° E 18:02:43 10° NNE
Cosmos 407 Rocket 3.5 17:53:45 10° SSW 17:58:54 88° WNW 18:04:04 10° NNE
DMSP B5D2-2 4.1 17:56:30 10° NNE 18:01:50 88° WNW 18:07:06 10° SSW
BREEZE M DEB (TANK) 4.2 17:56:15 10° WNW 18:01:55 39° SW 18:04:33 10° SE
Lacrosse 5 rocket 1.5 17:58:58 10° NW 18:02:22 41° NNE 18:04:27 20° E
Meteor 1-11 4.5 17:56:55 10° SSE 18:02:31 50° E 18:08:05 10° NNE
USA 281 4.4 17:58:01 10° NNE 18:04:03 41° NW 18:10:05 10° WSW
Cosmos 1844 Rocket 2.7 17:59:08 10° NNW 18:04:40 59° ENE 18:10:09 10° SE
APEX 4.2 18:00:26 10° SSW 18:06:30 74° ESE 18:12:05 10° NNE
CZ-4B DEB 4.1 18:01:15 10° SSE 18:06:42 80° ENE 18:12:11 10° NNW
Cosmos 1536 Rocket 3.8 18:02:38 10° SSW 18:06:57 73° W 18:11:18 10° N
CZ-4 R/B 2.2 18:04:08 10° SE 18:07:43 30° ENE 18:11:17 10° N
Meteor 2-12 Rocket 4.5 18:02:26 10° N 18:08:25 54° ENE 18:14:19 10° SSE
Nadezhda 2 Rocket 4.5 18:03:18 10° N 18:09:26 59° ENE 18:15:28 10° SSE
Cosmos 1140 Rocket 4.0 18:05:17 10° SW 18:10:24 62° WNW 18:15:33 10° NNE
CZ-4B R/B 3.3 18:05:21 10° SE 18:10:28 49° ENE 18:15:43 10° N
IGS 5A 4.5 18:15:33 24° E 18:16:14 25° ENE 18:19:36 10° N
Cosmos 1844 3.7 18:11:40 10° NNW 18:17:28 64° ENE 18:23:11 10° SE
CZ-4C R/B 3.1 18:13:41 10° NNE 18:17:36 81° ESE 18:21:17 10° SSW
MOS 1-B 4.3 18:12:03 10° SSE 18:17:44 61° ENE 18:23:27 10° N
Cosmos 1190 Rocket 4.0 18:12:30 10° SSW 18:17:49 86° ESE 18:23:08 10° NNE
Cosmos 1606 Rocket 3.4 18:13:45 10° N 18:18:06 81° E 18:22:25 10° SSE
Cosmos 1408 3.0 18:15:43 10° SSW 18:19:03 57° WNW 18:22:28 10° N
RESURS DK-1 2.5 18:15:07 10° NNW 18:19:08 49° NE 18:21:55 18° SE
ISS -1.7 18:17:58 10° W 18:20:52 26° SW 18:23:44 10° SSE
Cosmos 2228 3.8 18:17:45 10° NNW 18:21:53 52° W 18:25:58 10° S
Cosmos 1633 2.7 18:19:06 10° SSE 18:22:15 39° E 18:23:16 30° NE
Cosmos 2278 4.2 18:17:03 10° SW 18:22:40 63° WNW 18:28:21 10° NNE
Cosmos 1892 2.7 18:23:01 10° SSW 18:26:45 79° W 18:30:31 10° N
Cosmos 2360 Rocket 2.5 18:21:31 10° S 18:26:48 43° ESE 18:30:24 20° NE
Cosmos 2219 Rocket 3.4 18:23:45 10° SSE 18:27:04 21° ESE 18:27:04 21° ESE
Cosmos 1892 Rocket 3.6 18:26:40 10° S 18:30:58 53° E 18:35:16 10° NNE
Cosmos 2333 Rocket 2.9 18:26:43 10° SSE 18:31:39 32° ESE 18:33:11 27° ENE
COSMO-SKYMED 1 3.0 18:27:32 10° N 18:31:51 63° WNW 18:36:08 10° SSW
Cosmos 2278 Rocket 3.6 18:28:49 10° N 18:32:58 20° NE 18:33:32 20° NE
Cosmos 2322 Rocket 2.1 18:32:38 10° SSW 18:38:12 73° ESE 18:42:51 15° NNE
Cosmos 1825 2.0 18:36:30 10° S 18:40:12 89° W 18:43:55 10° N
Feng Yun 1-1 Rocket 4.2 18:35:04 10° SE 18:40:30 57° ENE 18:45:51 10° N
SL-4 R/B 1.8 18:39:06 10° WNW 18:42:36 61° N 18:43:14 51° NE
COSMOS 2455 4.2 18:37:57 10° WSW 18:43:22 33° NW 18:48:49 10° NNE
Cosmos 468 Rocket 4.3 18:40:11 10° NNW 18:45:21 67° WSW 18:50:25 10° S
Cosmos 1726 Rocket 4.0 18:46:20 10° NNW 18:50:37 62° W 18:54:52 10° S
BlueWalker 3 2.4 18:46:52 10° WNW 18:50:39 47° N 18:51:11 44° NNE
SL-16 R/B 2.5 18:46:31 10° SW 18:52:09 68° WNW 18:57:26 12° NNE
Cosmos 2333 4.4 18:48:26 10° S 18:53:42 44° ESE 18:54:40 40° E
In-Cosmos 22 Rocket 4.3 18:48:01 10° SSW 18:53:50 83° WNW 18:59:43 10° N
Cosmos 1954 Rocket 4.3 18:50:41 10° SSW 18:55:54 68° WNW 19:00:56 11° NNE
Cosmos 1745 Rocket 3.9 18:50:10 10° N 18:56:25 66° ENE 19:02:34 10° SSE
ATLAS 5 CENTAUR R/B 3.8 18:55:08 10° NW 18:57:38 15° N 18:58:45 14° NNE
CSL-04 Debris 4.2 18:56:13 35° ESE 18:58:07 52° ENE 19:03:22 10° N
Okean O Rocket 1.5 18:56:00 10° SSE 19:00:24 90° E 19:04:52 10° NNW
Okean-O 4.2 19:03:02 22° NNE 19:03:02 22° NNE 19:04:53 10° N
Cosmos 1386 Rocket 4.3 18:55:54 10° N 19:01:57 76° E 19:07:59 10° SSE
Cosmos 1814 Rocket 4.3 18:57:10 10° NNW 19:02:20 46° ENE 19:02:29 46° ENE
Cosmos 1340 2.5 18:58:45 10° NNW 19:02:26 83° W 19:02:55 65° S
ATLAS CENTAUR R/B 3.5 19:00:13 10° W 19:04:03 24° NNW 19:06:27 16° N
CSL-04 Rocket 3.7 19:04:35 49° E 19:05:21 53° ENE 19:10:36 10° N
Cosmos 1980 Rocket 4.3 19:01:57 10° W 19:06:16 22° NW 19:10:39 10° N
Cosmos 1850 Rocket 3.9 19:01:39 10° S 19:06:42 57° ESE 19:07:01 56° E
Cosmos 1741 Rocket 3.9 19:08:43 10° S 19:13:56 63° ESE 19:14:11 62° E
Cosmos 1869 4.1 19:10:33 10° NNW 19:14:19 50° W 19:18:07 10° S
Cosmos 1709 Rocket 3.9 19:08:58 10° N 19:15:04 59° ENE 19:16:27 48° ESE
Cosmos 841 Rocket 3.6 19:10:44 10° NNW 19:16:01 76° WSW 19:19:10 25° SSE
ATLAS 2AS CENTAUR R/B 3.9 19:09:44 10° NW 19:16:07 39° WSW 19:22:10 10° S
Cosmos 1943 Rocket 4.0 19:13:53 10° N 19:16:34 17° NNE 19:16:34 17° NNE
Cosmos 1461 3.1 19:16:05 10° SW 19:20:23 71° NW 19:20:38 69° NNW
Genesis I 4.3 19:18:12 10° SSW 19:20:43 38° SSW 19:20:43 38° SSW
Cosmos 1553 Rocket 4.2 19:16:09 10° SSW 19:22:12 68° WNW 19:28:23 10° N
Cosmos 1417 Rocket 4.4 19:19:02 10° S 19:25:19 86° W 19:31:33 10° N
Cosmos 2058 Rocket 4.0 19:21:16 10° NNW 19:25:31 48° W 19:29:45 10° SSW
Lacrosse 5 1.8 19:21:12 10° WSW 19:26:18 76° NNW 19:26:43 70° NNE
Landsat 7 4.3 19:29:57 50° N 19:29:57 50° N 19:33:27 10° NNW
Gblst 52 Del rocket 4.0 19:30:42 10° W 19:36:15 79° N 19:36:23 79° N
Cosmos 883 Rocket 4.4 19:32:57 10° S 19:41:13 45° NNE 19:45:30 10° NNE
Lacrosse 5 rocket 3.0 19:37:49 10° WNW 19:39:53 29° W 19:39:53 29° W
CZ-4 R/B 3.2 19:38:55 10° SSW 19:42:35 30° W 19:46:13 10° NNW
BREEZE-M DEB (TANK) 4.0 19:38:40 10° W 19:42:44 55° S 19:44:06 48° SSE
S3M 4.4 19:50:36 10° SSW 19:56:56 64° WNW 20:03:18 10° N
Resurs 01 Rocket 4.5 20:14:37 10° NNW 20:14:37 10° NNW 20:14:38 10° NNW
Cosmos 2360 Rocket 3.4 20:05:35 10° WSW 20:10:51 39° NW 20:12:13 34° NNW
Cosmos 2219 Rocket 3.3 20:05:36 10° SW 20:08:53 36° SW 20:08:53 36° SW
Cosmos 2333 Rocket 2.9 20:10:12 10° SW 20:15:17 50° WNW 20:15:17 50° WNW
Cosmos 2278 Rocket 3.5 20:12:17 10° NNW 20:15:25 34° NNW 20:15:25 34° NNW
Cosmos 2322 Rocket 4.0 20:18:10 10° W 20:22:49 26° NW 20:24:43 22° NNW
SL-16 R/B 4.5 20:33:31 10° WNW 20:37:22 18° NW 20:39:19 16° N
